Regional Weather Roundup
Issued by NWS

Home | Current Version | Previous Version | Text Only | Print | Product List | Glossary On
Versions: 1 2 3 4 5 6 7 8 9 10 11 12 13 14 15 16 17 18 19 20 21 22 23 24 25 26 27 28 29 30 31 32 33 34 35 36 37 38 39 40 41 42 43 44 45 46 47 48 49
000
ASUS44 KBMX 310510
RWRAL

ALABAMA REGIONAL WEATHER ROUNDUP
NATIONAL WEATHER SERVICE BIRMINGHAM AL
1200 AM CDT MON AUG 31 2015

NOTE: "FAIR" INDICATES FEW OR NO CLOUDS BELOW 12,000 FEET
WITH NO SIGNIFICANT WEATHER AND/OR OBSTRUCTIONS TO VISIBILITY.

THE REMARK "TC" DENOTES TEMPERATURE IN DEGREES CELSIUS.

ALZ001>011-014-016>018-020-310600-
NORTH ALABAMA

CITY           SKY/WX    TMP DP  RH WIND       PRES   REMARKS
MUSCLE SHOALS  CLEAR     67  64  90 CALM      30.08F
HUNTSVILLE     CLEAR     70  66  87 CALM      30.08F
DECATUR        CLEAR     69  67  93 E3        30.08F
HALEYVILLE     FAIR      65  65 100 CALM      30.11S FOG
GADSDEN        MOCLDY    68  61  77 CALM      30.08S
$$

ALZ012-013-022-023-030>036-040>044-310600-
WEST CENTRAL ALABAMA

CITY           SKY/WX    TMP DP  RH WIND       PRES   REMARKS
TUSCALOOSA     CLEAR     68  66  93 CALM      30.06S
$$

ALZ015-024>027-033>036-040>044-310600-
CENTRAL ALABAMA

CITY           SKY/WX    TMP DP  RH WIND       PRES   REMARKS
BIRMINGHAM     MOCLDY    71  67  87 NE6       30.09S
MONTGOMERY     CLEAR     74  70  87 N3        30.04S
SHELBY CO ARPT MOCLDY    70  68  93 CALM      30.07S
MAXWELL AFB    CLEAR     73  71  93 N3        30.04S
GREENVILLE     FAIR      69  66  90 CALM      30.05R
$$

ALZ019-021-028-029-037-038-045>048-310600-
EAST CENTRAL ALABAMA

CITY           SKY/WX    TMP DP  RH WIND       PRES   REMARKS
ANNISTON       PTCLDY    70  65  84 E3        30.08S
ALEXANDER CITY PTCLDY    74  72  93 E5        30.08S
AUBURN         MOCLDY    72  70  93 E7        30.08S
$$

ALZ051>064-310600-
SOUTHWEST ALABAMA

CITY           SKY/WX    TMP DP  RH WIND       PRES   REMARKS
MOBILE         PTCLDY    74  68  81 CALM      30.05R
BROOKLEY FIELD PTCLDY    74  69  85 CALM      30.05R
EVERGREEN      CLEAR     71  70  96 CALM      30.05S FOG
$$

ALZ049-050-065>069-310600-
SOUTHEAST ALABAMA

CITY           SKY/WX    TMP DP  RH WIND       PRES   REMARKS
DOTHAN         CLEAR     73  70  90 NW3       30.06F
OZARK            N/A     73  68  83 NE2       30.03S
TROY           CLEAR     69  68  96 CALM      30.05S
EUFAULA        FAIR      72  70  93 CALM      30.03S
$$



USA.gov is the U.S. government's official web portal to all federal, state and local government web resources and services.